Location: Gomont
(49.5000°N, 4.1667°E)
Time: 05:05:34
(UTC+00:00)

Daily predictions for brighter satellites

Satellite Brightness Start Highest point End
(mag) Time Altitude Azimuth Time Altitude Azimuth Time Altitude Azimuth
USA 215 4.4 02:31:07 10° ENE 02:35:38 39° NE 02:35:38 39° NE
Cosmos 2263 Rocket 4.1 02:45:16 26° ENE 02:45:16 26° ENE 02:48:54 10° ESE
Cosmos 2344 4.1 03:02:16 63° SSE 03:02:16 63° SSE 03:11:06 10° SE
ADEOS II 4.3 02:58:02 10° NNE 02:59:22 18° NNE 02:59:22 18° NNE
CZ-2D R/B 4.3 02:58:13 10° N 02:59:33 18° N 02:59:33 18° N
ACS3 Solar Sail 3.9 03:02:31 10° N 03:03:18 14° N 03:03:18 14° N
Cosmos 2227 Rocket 4.1 03:24:01 20° SE 03:24:01 20° SE 03:25:40 10° SE
Resurs 1-4 Rocket 4.3 03:25:17 10° N 03:26:18 15° N 03:26:18 15° N
USA 238 DEB 4.0 03:33:16 53° N 03:33:16 53° N 03:39:01 10° NE
USA 238 4.0 03:33:23 53° N 03:33:23 53° N 03:39:08 10° NE
CZ-2C R/B 3.3 03:37:49 10° NNE 03:41:54 45° E 03:41:54 45° E
CENTAUR R/B 4.3 03:40:29 23° NNW 03:43:34 29° N 03:50:51 10° ENE
H-2A R/B 3.8 03:39:50 10° N 03:41:46 22° N 03:41:46 22° N
Cosmos 1980 Rocket 3.3 03:47:10 29° SSE 03:49:10 39° ESE 03:54:21 10° NE
Cosmos 967 Rocket 4.4 03:51:59 86° SSW 03:52:09 89° SE 03:58:41 10° NE
Cosmos 1697 Rocket 2.6 03:59:01 80° NNE 03:59:01 80° NNE 04:04:23 10° NNE
ARGOS 3.4 03:55:11 10° NNE 03:59:31 57° N 03:59:31 57° N
COSMOS 2455 3.1 04:00:19 53° S 04:01:34 66° ESE 04:07:34 10° NE
NOSS 3-1 (C) 3.9 04:00:52 36° SSE 04:01:48 40° ESE 04:06:54 10° NE
USA 59 Rocket 2.2 04:04:34 14° NE 04:04:34 14° NE 04:05:03 10° NE
Cosmos 2239 Rocket 4.3 04:04:01 74° WSW 04:04:19 76° W 04:10:35 10° N
Cosmos 1486 Rocket 4.2 04:07:59 55° SSE 04:08:59 70° ESE 04:14:16 10° NNE
Meteor 1-11 4.2 04:05:01 10° NNW 04:10:56 88° W 04:16:48 10° S
USA 215 3.6 04:13:21 10° E 04:19:48 60° NNE 04:22:59 31° NW
PAYLOAD A 4.0 04:16:12 10° NNE 04:21:32 87° ESE 04:23:56 35° SSW
Cosmos 2219 3.3 04:18:36 17° NNW 04:23:08 75° ENE 04:28:49 10° SE
Cosmos 2263 Rocket 2.0 04:27:01 48° NW 04:28:32 68° WSW 04:34:06 10° SSE
Cosmos 2123 Rocket 3.9 04:28:37 10° NNW 04:34:44 59° W 04:40:46 10° S
SKYMED 2 3.9 04:31:43 10° SSE 04:36:00 64° ENE 04:40:19 10° N
Cosmos 1733 Rocket 4.2 04:42:18 28° NNW 04:42:18 28° NNW 04:44:44 10° N
Cosmos 1908 Rocket 3.9 04:36:42 10° S 04:41:00 64° E 04:45:22 10° NNE
ADEOS II 4.0 04:38:52 10° NNW 04:40:11 14° NNW 04:40:11 14° NNW
CZ-2D R/B 4.2 04:39:54 10° NNW 04:40:49 12° NNW 04:40:49 12° NNW
SJ-11-01 4.1 04:43:39 10° NNE 04:48:19 81° WNW 04:52:29 13° SSW
Cosmos 2082 3.6 04:44:28 10° NNW 04:50:14 86° WSW 04:55:54 10° SSE
Cosmos 1812 3.3 04:51:38 32° E 04:51:38 32° E 04:53:47 10° NNE
Cosmos 1025 Rocket 3.0 04:49:11 10° NNW 04:53:29 57° W 04:57:43 10° S
Cosmos 2369 4.0 04:49:32 10° SSW 04:55:09 69° ESE 05:00:47 10° NNE
Exosat Rocket 4.2 04:58:24 33° WSW 04:58:24 33° WSW 05:02:20 10° SSW
Cosmos 1934 Rocket 4.1 04:55:52 15° SW 05:00:52 50° WNW 05:06:57 10° N
Cosmos 1535 Rocket 4.4 04:55:11 10° SSW 05:01:34 75° W 05:07:57 10° N
COSMO-SKYMED 1 2.7 04:57:55 10° SSE 05:01:59 69° ENE 05:06:06 10° N
SL-16 R/B 3.9 04:57:09 10° SSE 05:02:10 34° ESE 05:07:13 10° NE
BREEZE-M DEB (TANK) 3.6 04:59:51 28° WSW 05:02:58 74° S 05:08:39 10° E
Cosmos 2227 Rocket 3.7 05:05:55 18° SW 05:05:55 18° SW 05:08:00 10° SSW
Cosmos 1447 Rocket 4.4 04:57:44 10° N 05:04:01 87° W 05:10:19 10° S
Cosmos 2221 Rocket 3.6 05:01:30 10° NNW 05:05:57 56° W 05:10:22 10° S
H-2A R/B 3.1 05:02:48 10° N 05:06:36 66° WNW 05:09:41 15° SSW
BREEZE-M R/B 1.7 05:07:00 75° WNW 05:07:10 84° N 05:09:35 10° E
Cosmos 1400 Rocket 2.7 05:05:25 10° S 05:09:13 80° E 05:13:02 10° NNE
NOSS 2-1 (D) 4.1 05:13:36 24° NNW 05:13:36 24° NNW 05:15:50 10° NNE
SL-4 R/B 3.9 05:16:46 13° SSW 05:16:46 13° SSW 05:17:55 10° S
GP-B 3.4 05:11:49 10° N 05:16:12 70° E 05:20:33 10° S
Cosmos 2333 Rocket 3.9 05:13:20 10° S 05:18:30 36° ESE 05:23:41 10° NE
Cosmos 1869 3.2 05:15:41 10° S 05:19:11 70° E 05:22:41 10° NNE
IRS-1D 3.4 05:14:35 10° NNE 05:19:49 83° WNW 05:24:54 10° SSW
CZ-2C R/B 3.3 05:16:20 10° N 05:20:13 26° WNW 05:21:07 24° W
Cosmos 1300 Rocket 3.4 05:19:49 10° SSW 05:24:14 78° WNW 05:28:39 10° N
Cosmos 1939 Rocket 3.7 05:21:40 10° N 05:24:57 27° WNW 05:25:30 26° W
Cosmos 1503 Rocket 4.3 05:21:24 15° SW 05:25:24 45° WNW 05:30:28 10° NNE
NOSS 2-1 (C) 4.2 05:25:32 21° NW 05:25:44 22° NW 05:28:09 10° NNE
Cosmos 1605 Rocket 4.1 05:20:17 10° SSW 05:26:32 55° WNW 05:32:47 10° N
ISS -2.9 05:24:33 17° SW 05:26:50 45° SSE 05:30:03 10° ENE
CZ-4 R/B 3.9 05:22:57 10° NNE 05:27:58 85° WNW 05:32:56 10° SSW
Cosmos 1538 Rocket 4.0 05:23:08 10° NNW 05:28:29 84° WSW 05:33:43 10° SSE
NOSS 2-1 (E) 4.1 05:30:30 22° NW 05:31:04 23° NW 05:33:36 10° NNE
Cosmos 2322 Rocket 4.1 05:26:31 10° SSE 05:31:31 33° ESE 05:36:31 10° NE
Cosmos 1461 3.0 05:29:20 11° NNW 05:32:54 62° NE 05:36:32 10° SE
Cosmos 1980 Rocket 2.6 05:28:58 16° WSW 05:33:09 41° NW 05:38:27 10° NNE
Cosmos 1346 Rocket 2.4 05:30:38 10° NNW 05:34:19 79° WSW 05:37:59 10° S
Aureole 1 Rocket 4.2 05:28:23 10° SSW 05:35:36 85° ESE 05:41:48 10° NNE
CENTAUR R/B 4.0 05:28:31 10° NW 05:36:05 50° NE 05:44:58 10° ESE
USA 276 2.6 05:36:54 20° ENE 05:36:54 20° ENE 05:37:23 10° E
Cosmos 1844 Rocket 2.7 05:31:10 10° NNW 05:36:52 89° WSW 05:42:30 10° SSE
Meteor 2-17 Rocket 4.4 05:33:26 10° NNW 05:39:31 79° W 05:45:35 10° S
Cosmos 1459 Rocket 4.3 05:33:56 10° S 05:39:55 71° E 05:46:01 10° NNE
IGS 5A 3.4 05:38:49 10° NNE 05:42:49 86° ESE 05:46:47 10° SSW
Cosmos 1697 Rocket 4.0 05:40:45 16° WNW 05:43:28 22° NW 05:47:48 10° N
COSMOS 2455 3.6 05:43:29 14° W 05:47:56 34° NW 05:53:24 10° NNE
Cosmos 1484 Rocket 2.9 05:45:06 10° NNE 05:48:36 69° ESE 05:52:05 10° S
RUBIN 8/PSLV 4.5 05:46:42 10° N 05:51:01 73° WNW 05:55:20 10° SSW
USA 59 Rocket 1.3 05:50:10 12° NW 05:51:05 13° NNW 05:52:34 10° N
NOSS 3-1 (C) 3.5 05:48:12 13° WSW 05:52:25 43° NNW 05:58:10 10° NE
ARIANE 5 R/B 4.5 05:53:22 10° NNE 05:57:53 33° E 06:02:21 10° SSE
Cosmos 923 Rocket 4.2 05:52:48 10° NNW 05:58:06 81° ENE 06:03:25 10° SSE
Cosmos 2278 4.0 05:53:26 10° SSW 05:59:02 74° ESE 06:04:42 10° NNE
Lacrosse 4 Rocket 2.8 05:55:28 10° NNW 05:59:04 33° NE 06:02:42 10° ESE
Cosmos 2237 4.3 05:54:50 10° SW 06:00:26 58° NW 06:06:05 10° NNE
NOSS 3-1 (A) 3.0 05:56:03 10° SW 06:00:47 72° NW 06:06:40 10° NE
USA 215 3.4 05:56:15 10° SE 06:02:47 67° SW 06:09:22 10° WNW
Cosmos 2360 Rocket 3.3 05:57:26 10° S 06:02:49 50° ESE 06:08:14 10° NE
Cosmos 1602 4.2 06:01:35 10° NW 06:03:47 21° W 06:05:57 10° SW
Cosmos 1680 Rocket 3.9 05:58:43 10° NNW 06:04:01 69° ENE 06:09:17 10° SSE
Cosmos 372 Rocket 3.9 05:59:35 10° SSW 06:04:39 68° WNW 06:09:48 10° NNE
CBERS-1 4.2 06:00:53 10° NNE 06:06:02 79° ESE 06:11:09 10° SSW
Cosmos 2219 4.4 06:02:32 10° NW 06:06:38 21° W 06:10:43 10° SSW
Cosmos 1862 3.0 06:06:06 10° NNW 06:09:40 68° W 06:13:12 10° S
Cosmos 1975 Rocket 3.5 06:06:15 10° NNW 06:10:12 37° W 06:14:09 10° SSW
Cosmos 405 Rocket 3.3 06:07:47 10° N 06:10:50 47° ENE 06:13:52 10° SSE
Cosmos 2263 Rocket 3.9 06:09:39 10° WNW 06:11:19 11° W 06:12:59 10° WSW
Helios 1A Rocket 2.5 06:08:25 10° S 06:11:36 50° WSW 06:14:48 10° NNW
BREEZE-M DEB (TANK) 4.3 06:04:42 10° SW 06:16:14 49° SSE 06:19:48 10° E
Cosmos 1356 Rocket 4.5 06:14:05 10° S 06:17:46 47° E 06:21:30 10° NNE
Cosmos 1802 Rocket 4.0 06:12:16 10° S 06:18:30 83° W 06:24:52 10° N
Cosmos 1782 Rocket 4.5 06:15:04 10° SW 06:18:53 28° WNW 06:22:45 10° N
MOS 1 Rocket 3.1 06:15:56 10° N 06:20:18 79° WNW 06:24:51 10° SSW
